User: anonymous   Login
Location: Unspecified
(0.0000°N, 0.0000°E)
Time: 10:09:52
(UTC+00:00)
Language:

SPROUT - Orbit

View from above orbital plane
View from above orbital plane
View from above satellite
View from above satellite

Ground track
Ground track

The orbit data is extracted from the following two-line orbital elements,

1 39770U 14029E   20224.83454909  .00000504  00000-0  61219-4 0  9996
2 39770  97.9032 330.8931 0009783 139.7465 220.4462 14.87813944337290
Epoch (UTC): 11 August 2020 20:01:45
Eccentricity: 0.0009783
inclination: 97.9032°
perigee height: 598 km
apogee height: 611 km
right ascension of ascending node: 330.8931°
argument of perigee: 139.7465°
revolutions per day: 14.87813944
mean anomaly at epoch: 220.4462°
orbit number at epoch: 33729

The dashed part of the orbit path shows where the satellite is in the earth's shadow,  

DLR